This is the latest recevied weather packets stored in our database for station/object F5MAP-5. If no packets are shown the sender has not sent any weather packets the latest 10 day(s).
| Time | Temp. | Humidity | Pressure | Rain* | Wind** | Luminosity | Snow |
|---|---|---|---|---|---|---|---|
| 1787920332 | 26.11° C | 64% | 1013 hPa | 0 mm | - | 559 W/m² | - |
| 1787919732 | 25.56° C | 71% | 1013.1 hPa | 0 mm | - | 911 W/m² | - |
| 1787919132 | 25° C | 75% | 1012.9 hPa | 0 mm | - | 744 W/m² | - |
| 1787918532 | 24.44° C | 78% | 1013.3 hPa | 0 mm | - | 791 W/m² | - |
| 1787917932 | 23.33° C | 83% | 1013.1 hPa | 0 mm | - | 812 W/m² | - |
| 1787917332 | 22.78° C | 85% | 1013.1 hPa | 0 mm | - | 603 W/m² | - |
| 1787916734 | 21.67° C | 85% | 1013.2 hPa | 0 mm | - | 294 W/m² | - |
| 1787916732 | 21.67° C | 85% | 1013.2 hPa | 0 mm | - | 294 W/m² | - |
| 1787916134 | 21.67° C | 87% | 1013.2 hPa | 0 mm | - | 232 W/m² | - |
| 1787915532 | 21.67° C | 89% | 1013 hPa | 0 mm | - | 237 W/m² | - |
| 1787914932 | 21.67° C | 91% | 1012.9 hPa | 0 mm | - | 221 W/m² | - |
| 1787914333 | 21.11° C | 91% | 1012.8 hPa | 0 mm | - | 322 W/m² | - |
| 1787913732 | 21.11° C | 92% | 1013 hPa | 0 mm | - | 195 W/m² | - |
| 1787913132 | 21.11° C | 93% | 1012.4 hPa | 0 mm | - | 179 W/m² | - |
| 1787912532 | 21.11° C | 93% | 1012.5 hPa | 0 mm | - | 236 W/m² | - |
| 1787911932 | 21.11° C | 94% | 1012.6 hPa | 0 mm | - | 596 W/m² | - |
| 1787911332 | 20.56° C | 94% | 1012.3 hPa | 0 mm | - | 650 W/m² | - |
| 1787910732 | 20.56° C | 94% | 1011.9 hPa | 0 mm | - | 192 W/m² | - |
| 1787910132 | 20.56° C | 94% | 1012.5 hPa | 0 mm | - | 165 W/m² | - |
| 1787909532 | 20.56° C | 94% | 1012.5 hPa | 0 mm | - | 257 W/m² | - |
| 1787908932 | 20.56° C | 94% | 1012.2 hPa | 0 mm | - | 255 W/m² | - |
| 1787908332 | 20.56° C | 94% | 1012.3 hPa | 0 mm | - | 135 W/m² | - |
| 1787907732 | 20.56° C | 94% | 1012.1 hPa | 0 mm | - | 56 W/m² | - |
| 1787907132 | 20.56° C | 93% | 1011.9 hPa | 0 mm | - | 95 W/m² | - |
| 1787906532 | 20.56° C | 93% | 1011.8 hPa | 0 mm | - | 165 W/m² | - |
* Rain latest hour (hover to see other rain measurements)
** Current wind speed in m/s (hover to see current wind gust speed)